Printer-friendly version

IAU Minor Planet Center

Minor Planet Center

MPEC 2008-J06 : 2008 JC

The following Minor Planet Electronic Circular may be linked-to from your own Web pages, but must not otherwise be redistributed electronically.


Read MPEC 2008-J05 Read MPEC 2008-J07


M.P.E.C. 2008-J06                                Issued 2008 May 1, 21:30 UT

     The Minor Planet Electronic Circulars contain information on unusual
         minor planets and routine data on comets.  They are published
   on behalf of Commission 20 of the International Astronomical Union by the
          Minor Planet Center, Smithsonian Astrophysical Observatory,
                          Cambridge, MA 02138, U.S.A.

             Prepared using the Tamkin Foundation Computer Network

                              MPC@CFA.HARVARD.EDU
          URL http://www.cfa.harvard.edu/iau/mpc.html  ISSN 1523-6714

                                    2008 JC

Observations:
     K08J00C* C2008 05 01.28317 14 26 40.12 +08 14 46.0          18.0 V EJ006703
     K08J00C  C2008 05 01.28859 14 26 30.19 +08 10 45.2          18.4 V EJ006703
     K08J00C  C2008 05 01.29399 14 26 20.47 +08 06 46.8          18.2 V EJ006703
     K08J00C  C2008 05 01.29940 14 26 10.75 +08 02 51.6          18.1 V EJ006703
     K08J00C  C2008 05 01.32872 14 25 18.69 +07 41 37.7          18.1 R EJ006854
     K08J00C  C2008 05 01.33028 14 25 15.98 +07 40 31.7          18.4 R EJ006854
     K08J00C  C2008 05 01.33185 14 25 13.24 +07 39 23.2          18.0 R EJ006854
     K08J00C  C2008 05 01.33535 14 25 07.06 +07 36 50.9          18.3 V EJ006703
     K08J00C  C2008 05 01.33575 14 25 06.45 +07 36 36.3          18.4 V EJ006703
     K08J00C  C2008 05 01.33617 14 25 05.66 +07 36 18.1          18.1 V EJ006703
     K08J00C  C2008 05 01.33659 14 25 04.94 +07 36 01.4          18.3 V EJ006703
     K08J00C  C2008 05 01.43174 14 22 30.57 +06 31 27.9          18.4 V EJ006703
     K08J00C  C2008 05 01.43215 14 22 29.98 +06 31 13.4          18.8 V EJ006703
     K08J00C  C2008 05 01.43257 14 22 29.33 +06 30 56.7          18.4 V EJ006703
     K08J00C  C2008 05 01.87585 14 14 43.21 +02 32 58.0                 EJ006J95
     K08J00C  C2008 05 01.87741 14 14 41.61 +02 32 18.1                 EJ006J95
     K08J00C  C2008 05 01.87896 14 14 40.01 +02 31 37.7          19.0 R EJ006J95

Observer details:
703 Catalina Sky Survey.  Observer A. Boattini.  Measurers E. C. Beshore,
    A. Boattini, G. J. Garradd, A. R. Gibbs, A. D. Grauer, R. E. Hill,
    R. A. Kowalski, S. M. Larson, R. H. McNaught.  0.68-m Schmidt + CCD.
854 Sabino Canyon Observatory, Tucson.  Observer J. E. McGaha.  0.36-m f/10.0
    Schmidt-Cassegrain + CCD.
J95 Great Shefford.  Observer P. Birtwhistle.  0.40-m f/6.0 Schmidt-Cassegrain
    + CCD.

Orbital elements:
2008 JC                                                  Earth MOID = 0.0063 AU
Epoch 2008 May 14.0 TT = JDT 2454600.5                  MPC
M  72.33633              (2000.0)            P               Q
n   0.92216591     Peri.   58.20846     -0.27545450     -0.96076141
a   1.0453539      Node    47.81697     +0.86644977     -0.26281560
e   0.4631273      Incl.    2.52099     +0.41640079     -0.08868749
P   1.07           H   26.4           G   0.15           U   8
Residuals in seconds of arc
080501 703  1.1-  0.7-    080501 854  0.7+  0.5-    080501 703  0.2-  0.4+
080501 703  1.3-  0.3-    080501 703 (0.2-  2.5-)   080501 703  0.5-  0.1+
080501 703  0.2+  0.5+    080501 703  1.0+  0.1-    080501 J95  0.1-  0.7-
080501 703 (1.2+  3.7+)   080501 703  0.1+  0.4-    080501 J95  0.1+  0.3+
080501 854  0.6+  0.2+    080501 703  0.2+  0.7+    080501 J95  0.0   0.5+
080501 854  0.8+  1.0+    080501 703  0.6-  1.0-

Ephemeris:
2008 JC                  a,e,i = 1.05, 0.46, 3                   q = 0.5612
Date    TT    R. A. (2000) Decl.     Delta      r     Elong.  Phase     V
2008 04 24    01 21.04   +21 36.5    0.0458   0.961    14.1   165.3    32.9
2008 04 25    01 17.24   +23 04.7    0.0378   0.970    16.1   163.2    31.5
2008 04 26    01 11.36   +25 18.2    0.0300   0.978    19.0   160.4    29.8
2008 04 27    01 00.90   +29 03.0    0.0222   0.986    23.6   155.9    27.8
2008 04 28    00 37.11   +36 29.5    0.0147   0.994    32.4   147.1    25.1
2008 04 29    22 58.89   +54 24.9    0.00830  1.003    56.5   123.1    21.1
2008 04 30    16 06.98   +43 01.6    0.00691  1.011   118.1    61.6    17.8
2008 05 01    14 35.57   +12 24.0    0.0124   1.019   152.5    27.2    18.1
2008 05 02    14 12.69   +01 47.1    0.0197   1.027   161.7    17.9    18.9
2008 05 03    14 02.57   -03 01.1    0.0274   1.035   164.1    15.5    19.5
2008 05 04    13 56.90   -05 42.4    0.0352   1.042   164.3    15.2    20.1
2008 05 05    13 53.31   -07 25.1    0.0432   1.050   163.7    15.6    20.5
2008 05 06    13 50.86   -08 36.1    0.0512   1.058   162.9    16.3    20.9
2008 05 07    13 49.10   -09 28.2    0.0592   1.066   161.9    17.1    21.3
2008 05 08    13 47.80   -10 08.2    0.0673   1.073   161.0    17.9    21.6
2008 05 09    13 46.83   -10 39.9    0.0754   1.081   160.0    18.7    21.9
2008 05 10    13 46.09   -11 05.7    0.0835   1.088   159.0    19.4    22.2
2008 05 11    13 45.54   -11 27.3    0.0917   1.096   158.0    20.2    22.4
2008 05 12    13 45.13   -11 45.5    0.0999   1.103   157.1    20.9    22.6
2008 05 13    13 44.85   -12 01.3    0.108    1.110   156.1    21.6    22.8
2008 05 14    13 44.66   -12 15.1    0.117    1.118   155.2    22.3    23.0

Timothy B. Spahr             (C) Copyright 2008 MPC           M.P.E.C. 2008-J06

Read MPEC 2008-J05 Read MPEC 2008-J07


Our Web policy. Index to the CBAT/MPC/ICQ pages.


Valid HTML 4.01!